This demonstration page uses our WeatherBlox Daily Observations layout. Learn more.

Left ArrowRight Arrow

38.20091, -84.87328

Hourly Observations for August 8, 2022

Temp ( °F °C ) Dew Point ( °F °C ) Humidity (%) Winds ( mph kmh ) Pressure ( in mb ) Visibility ( mi km ) Precip ( " mm )
12:53 am 00:53 Clear 73 22.8 70 21.1 90 90 Calm 30.11 1020 10 16 0.00 0.00
1:53 am 01:53 Clear 72 22.2 69 20.6 91 91 SSW 7 11 30.10 1019 10 16 0.00 0.00
2:53 am 02:53 Clear 71 21.7 68 20 90 90 SSW 6 9 30.08 1019 10 16 0.00 0.00
3:53 am 03:53 Clear 70 21.1 68 20 93 93 S 3 6 30.07 1018 10 16 0.00 0.00
4:53 am 04:53 Clear 70 21.1 68 20 93 93 SSW 3 6 30.08 1019 10 16 0.00 0.00
5:53 am 05:53 Clear 70 21.1 68 20 93 93 SSW 5 7 30.07 1018 10 16 0.00 0.00
6:53 am 06:53 Sunny 71 21.7 68 20 90 90 Calm 30.08 1019 10 16 0.00 0.00
7:53 am 07:53 Sunny 72 22.2 69 20.6 91 91 S 3 6 30.09 1019 10 16 0.00 0.00
8:53 am 08:53 Sunny 76 24.4 71 21.7 85 85 SW 6 9 30.09 1019 10 16 0.00 0.00
9:53 am 09:53 Sunny 80 26.7 72 22.2 76 76 SSW 8 13 30.09 1019 10 16 0.00 0.00
10:53 am 10:53 Sunny 83 28.3 74 23.3 74 74 WSW 6 9 30.09 1019 10 16 0.00 0.00
11:53 am 11:53 Sunny 86 30 74 23.3 67 67 SW 7 11 30.09 1019 10 16 0.00 0.00
12:53 pm 12:53 Partly Cloudy 87 30.6 74 23.3 65 65 WSW 9 15 30.08 1019 10 16 0.00 0.00
1:53 pm 13:53 Mostly Sunny 90 32.2 75 23.9 62 62 SW 12 19 30.06 1018 10 16 0.00 0.00
2:53 pm 14:53 Sunny 90 32.2 73 22.8 58 58 WSW 12 19 30.04 1017 10 16 0.00 0.00
3:06 pm 15:06 Partly Cloudy with Nearby Thunderstorms 89 31.7 73 22.8 59 59 WSW 12 19 30.02 1017 10 16 0.00 0.00
3:21 pm 15:21 Mostly Cloudy 87 30.6 72 22.2 61 61 SW 9 15 30.01 1016 10 16 0.00 0.00
3:53 pm 15:53 Partly Cloudy 91 32.8 74 23.3 58 58 WSW 7 11 30.02 1017 10 16 0.00 0.00
4:53 pm 16:53 Mostly Cloudy 89 31.7 75 23.9 63 63 Calm 29.99 1016 10 16 0.00 0.00
5:53 pm 17:53 Mostly Sunny 90 32.2 74 23.3 59 59 SW 10 17 29.97 1015 10 16 0.00 0.00
6:53 pm 18:53 Sunny 88 31.1 74 23.3 63 63 SW 12 19 29.96 1014 10 16 0.00 0.00
7:53 pm 19:53 Sunny 86 30 74 23.3 67 67 SW 9 15 29.95 1014 10 16 0.00 0.00
8:53 pm 20:53 Clear 84 28.9 73 22.8 70 70 S 7 11 29.95 1014 10 16 0.00 0.00
9:53 pm 21:53 Clear 80 26.7 74 23.3 82 82 WSW 3 6 29.98 1015 10 16 0.00 0.00
10:53 pm 22:53 Clear 79 26.1 73 22.8 82 82 SSW 3 6 30.01 1016 10 16 0.00 0.00
11:53 pm 23:53 Clear 79 26.1 74 23.3 85 85 SSW 3 6 30.01 1016 10 16 0.00 0.00

Powered by AerisWeather